| time (UTC) | temp C | wind direction | speed KPH | gust KPH | rain 1hr cm | rain 24hr cm | rain mn cm | humidity % | barometer mb |
| 20260502180200 | 20 | 306 | 9.7 | 12.9 | 0.00 | 0.00 | 0.00 | 53 | 1021.6 |
| 20260502170201 | 18 | 91 | 6.4 | 11.3 | 0.00 | 0.00 | 0.00 | 55 | 1021.9 |
| 20260502164200 | 18 | 69 | 11.3 | 14.5 | 0.00 | 0.00 | 0.00 | 58 | 1021.8 |
| 20260502163700 | 18 | 103 | 8.0 | 12.9 | 0.00 | 0.00 | 0.00 | 59 | 1021.9 |
| 20260502163200 | 18 | 61 | 6.4 | 11.3 | 0.00 | 0.00 | 0.00 | 64 | 1021.8 |
| 20260502162701 | 18 | 27 | 3.2 | 6.4 | 0.00 | 0.00 | 0.00 | 60 | 1021.8 |
| 20260502162200 | 18 | 72 | 6.4 | 9.7 | 0.00 | 0.00 | 0.00 | 63 | 1021.9 |
| 20260502161700 | 18 | 29 | 3.2 | 9.7 | 0.00 | 0.00 | 0.00 | 65 | 1021.8 |
| 20260502161200 | 17 | 46 | 8.0 | 11.3 | 0.00 | 0.00 | 0.00 | 64 | 1021.8 |
| 20260502160700 | 17 | 27 | 1.6 | 4.8 | 0.00 | 0.00 | 0.00 | 64 | 1022.0 |
| 20260502160200 | 17 | 73 | 6.4 | 9.7 | 0.00 | 0.00 | 0.00 | 66 | 1022.0 |
| 20260502152201 | 16 | 358 | 4.8 | 6.4 | 0.00 | 0.00 | 0.00 | 71 | 1021.9 |
| 20260502151700 | 16 | 55 | 4.8 | 8.0 | 0.00 | 0.00 | 0.00 | 73 | 1021.8 |
| 20260502151202 | 16 | 39 | 6.4 | 9.7 | 0.00 | 0.00 | 0.00 | 72 | 1021.8 |
| 20260502150700 | 16 | 33 | 6.4 | 14.5 | 0.00 | 0.00 | 0.00 | 74 | 1021.8 |
| 20260502150200 | 16 | 5 | 3.2 | 9.7 | 0.00 | 0.00 | 0.00 | 72 | 1021.8 |
| 20260502130700 | 12 | 277 | 1.6 | 4.8 | 0.00 | 0.00 | 0.00 | 95 | 1020.3 |
| 20260502130201 | 12 | 31 | 0.0 | 1.6 | 0.00 | 0.00 | 0.00 | 95 | 1020.1 |
| 20260502123701 | 11 | 314 | 0.0 | 1.6 | 0.00 | 0.00 | 0.00 | 96 | 1019.5 |
| 20260502123200 | 11 | 343 | 1.6 | 3.2 | 0.00 | 0.00 | 0.00 | 96 | 1019.4 |
| 20260502122701 | 11 | 314 | 1.6 | 1.6 | 0.00 | 0.00 | 0.00 | 96 | 1019.3 |
| 20260502122200 | 11 | 255 | 0.0 | 0.0 | 0.00 | 0.00 | 0.00 | 96 | 1019.2 |
| 20260502121700 | 11 | 0 | 0.0 | 0.0 | 0.00 | 0.00 | 0.00 | 96 | 1019.1 |
| 20260502121200 | 11 | 0 | 0.0 | 0.0 | 0.00 | 0.00 | 0.00 | 96 | 1019.0 |
| 20260502120700 | 11 | 208 | 0.0 | 1.6 | 0.00 | 0.00 | 0.00 | 96 | 1018.9 |
| 20260502120200 | 11 | 76 | 0.0 | 0.0 | 0.00 | 0.00 | 0.00 | 96 | 1018.8 |
| 20260502115700 | 11 | 136 | 1.6 | 4.8 | 0.00 | 0.00 | 0.00 | 96 | 1018.8 |
| 20260502115200 | 11 | 0 | 0.0 | 0.0 | 0.00 | 0.00 | 0.00 | 96 | 1018.7 |
| 20260502114700 | 11 | 330 | 0.0 | 0.0 | 0.00 | 0.00 | 0.00 | 96 | 1018.6 |
| 20260502114200 | 11 | 278 | 0.0 | 0.0 | 0.00 | 0.00 | 0.00 | 96 | 1018.6 |
| 20260502113700 | 11 | 266 | 0.0 | 1.6 | 0.00 | 0.00 | 0.00 | 96 | 1018.5 |
| 20260502113200 | 11 | 126 | 0.0 | 0.0 | 0.00 | 0.00 | 0.00 | 96 | 1018.4 |
| 20260502112702 | 11 | 83 | 0.0 | 0.0 | 0.00 | 0.00 | 0.00 | 96 | 1018.4 |
| 20260502112200 | 11 | 307 | 1.6 | 1.6 | 0.00 | 0.00 | 0.00 | 96 | 1018.4 |
| 20260502111700 | 11 | 85 | 1.6 | 3.2 | 0.00 | 0.00 | 0.00 | 96 | 1018.3 |
| 20260502111200 | 11 | 138 | 1.6 | 1.6 | 0.00 | 0.00 | 0.00 | 96 | 1018.3 |
| 20260502110700 | 11 | 300 | 1.6 | 4.8 | 0.00 | 0.00 | 0.00 | 96 | 1018.2 |
| 20260502110200 | 11 | 0 | 0.0 | 0.0 | 0.00 | 0.00 | 0.00 | 96 | 1018.1 |
| 20260502105700 | 11 | 0 | 0.0 | 0.0 | 0.00 | 0.00 | 0.00 | 96 | 1017.9 |
| 20260502105200 | 11 | 208 | 0.0 | 0.0 | 0.00 | 0.00 | 0.00 | 96 | 1017.9 |
| 20260502104700 | 11 | 0 | 0.0 | 0.0 | 0.00 | 0.00 | 0.00 | 96 | 1017.9 |
| 20260502104202 | 11 | 287 | 0.0 | 0.0 | 0.00 | 0.00 | 0.00 | 95 | 1017.8 |
| 20260502103700 | 11 | 117 | 0.0 | 1.6 | 0.00 | 0.00 | 0.00 | 96 | 1017.7 |
| 20260502103201 | 11 | 315 | 1.6 | 3.2 | 0.00 | 0.00 | 0.00 | 96 | 1017.6 |
| 20260502102700 | 11 | 279 | 1.6 | 3.2 | 0.00 | 0.00 | 0.00 | 96 | 1017.6 |
| 20260502102200 | 10 | 347 | 1.6 | 3.2 | 0.00 | 0.00 | 0.00 | 96 | 1017.6 |
| 20260502101700 | 10 | 275 | 3.2 | 3.2 | 0.00 | 0.00 | 0.00 | 96 | 1017.5 |
| 20260502101200 | 10 | 266 | 0.0 | 0.0 | 0.00 | 0.00 | 0.00 | 95 | 1017.5 |
| 20260502100701 | 10 | 251 | 0.0 | 1.6 | 0.00 | 0.00 | 0.00 | 95 | 1017.4 |
| 20260502100200 | 10 | 233 | 0.0 | 1.6 | 0.00 | 0.00 | 0.00 | 96 | 1017.3 |
| 20260502091200 | 11 | 217 | 0.0 | 1.6 | 0.00 | 0.00 | 0.00 | 95 | 1017.3 |
| 20260502090700 | 11 | 0 | 0.0 | 0.0 | 0.00 | 0.00 | 0.00 | 95 | 1017.4 |
| 20260502090200 | 11 | 234 | 0.0 | 1.6 | 0.00 | 0.00 | 0.00 | 95 | 1017.4 |
| 20260502071200 | 12 | 350 | 1.6 | 3.2 | 0.00 | 0.00 | 0.00 | 95 | 1017.4 |
| 20260502070700 | 12 | 359 | 1.6 | 3.2 | 0.00 | 0.00 | 0.00 | 95 | 1017.3 |
| 20260502070201 | 12 | 324 | 1.6 | 3.2 | 0.00 | 0.00 | 0.00 | 95 | 1017.3 |
| 20260502065700 | 12 | 25 | 1.6 | 3.2 | 0.00 | 0.00 | 0.00 | 95 | 1017.2 |
| 20260502065200 | 12 | 5 | 1.6 | 3.2 | 0.00 | 0.00 | 0.00 | 95 | 1017.2 |
| 20260502064700 | 12 | 300 | 1.6 | 3.2 | 0.00 | 0.00 | 0.00 | 95 | 1017.2 |
| 20260502064200 | 12 | 64 | 3.2 | 3.2 | 0.00 | 0.00 | 0.00 | 95 | 1017.2 |
| 20260502063700 | 12 | 347 | 1.6 | 3.2 | 0.00 | 0.00 | 0.00 | 95 | 1017.3 |
| 20260502063200 | 12 | 326 | 0.0 | 0.0 | 0.00 | 0.00 | 0.00 | 95 | 1017.2 |
| 20260502062700 | 12 | 335 | 0.0 | 1.6 | 0.00 | 0.00 | 0.00 | 95 | 1017.1 |
| 20260502062200 | 12 | 0 | 0.0 | 1.6 | 0.00 | 0.00 | 0.00 | 95 | 1017.1 |
| 20260502061200 | 12 | 58 | 3.2 | 3.2 | 0.00 | 0.00 | 0.00 | 95 | 1017.1 |
| 20260502060700 | 12 | 5 | 1.6 | 3.2 | 0.00 | 0.00 | 0.00 | 95 | 1017.1 |
| 20260502060200 | 12 | 310 | 3.2 | 4.8 | 0.00 | 0.00 | 0.00 | 95 | 1017.1 |
| 20260502055700 | 12 | 57 | 3.2 | 4.8 | 0.00 | 0.00 | 0.00 | 95 | 1017.2 |
| 20260502055200 | 12 | 317 | 1.6 | 3.2 | 0.00 | 0.00 | 0.00 | 95 | 1017.2 |
| 20260502054701 | 12 | 354 | 1.6 | 1.6 | 0.00 | 0.00 | 0.00 | 95 | 1017.1 |
| 20260502054200 | 12 | 336 | 1.6 | 3.2 | 0.00 | 0.00 | 0.00 | 95 | 1017.1 |
| 20260502053701 | 12 | 344 | 3.2 | 4.8 | 0.00 | 0.00 | 0.00 | 95 | 1017.1 |
| 20260502053201 | 12 | 300 | 1.6 | 3.2 | 0.00 | 0.00 | 0.00 | 95 | 1017.2 |
| 20260502052701 | 12 | 339 | 3.2 | 3.2 | 0.00 | 0.00 | 0.00 | 95 | 1017.1 |
| 20260502052200 | 12 | 70 | 3.2 | 3.2 | 0.00 | 0.00 | 0.00 | 95 | 1017.0 |
| 20260502051700 | 12 | 108 | 1.6 | 1.6 | 0.00 | 0.00 | 0.00 | 95 | 1017.0 |
| 20260502051200 | 12 | 92 | 3.2 | 4.8 | 0.00 | 0.00 | 0.00 | 95 | 1017.0 |
| 20260502050702 | 12 | 352 | 1.6 | 3.2 | 0.00 | 0.00 | 0.00 | 95 | 1017.0 |
| 20260502050200 | 12 | 1 | 1.6 | 1.6 | 0.00 | 0.00 | 0.00 | 95 | 1017.1 |
| 20260502045700 | 12 | 31 | 1.6 | 1.6 | 0.00 | 0.00 | 2.49 | 95 | 1017.1 |
| 20260502045201 | 12 | 337 | 1.6 | 3.2 | 0.00 | 0.00 | 2.49 | 95 | 1017.1 |
| 20260502044701 | 12 | 352 | 1.6 | 1.6 | 0.00 | 0.00 | 2.49 | 95 | 1017.0 |
| 20260502044200 | 12 | 348 | 3.2 | 3.2 | 0.00 | 0.00 | 2.49 | 95 | 1017.1 |
| 20260502043700 | 12 | 352 | 1.6 | 3.2 | 0.00 | 0.00 | 2.49 | 95 | 1017.2 |
| 20260502043200 | 12 | 319 | 3.2 | 6.4 | 0.00 | 0.00 | 2.49 | 95 | 1017.3 |
| 20260502042700 | 12 | 306 | 0.0 | 0.0 | 0.00 | 0.00 | 2.49 | 95 | 1017.3 |
| 20260502042200 | 12 | 282 | 3.2 | 3.2 | 0.00 | 0.00 | 2.49 | 95 | 1017.3 |
| 20260502041700 | 12 | 48 | 1.6 | 1.6 | 0.00 | 0.00 | 2.49 | 95 | 1017.2 |
| 20260502041200 | 12 | 346 | 1.6 | 3.2 | 0.00 | 0.00 | 2.49 | 95 | 1017.1 |
| 20260502040700 | 12 | 341 | 0.0 | 0.0 | 0.00 | 0.00 | 2.49 | 95 | 1017.2 |
| 20260502040200 | 12 | 192 | 0.0 | 1.6 | 0.00 | 0.00 | 2.49 | 95 | 1017.3 |
| 20260502035700 | 12 | 307 | 0.0 | 1.6 | 0.00 | 0.00 | 2.49 | 95 | 1017.3 |
| 20260502035200 | 12 | 116 | 1.6 | 1.6 | 0.00 | 0.00 | 2.49 | 95 | 1016.9 |
| 20260502034700 | 12 | 245 | 1.6 | 1.6 | 0.00 | 0.00 | 2.49 | 95 | 1017.1 |
| 20260502034200 | 12 | 89 | 1.6 | 3.2 | 0.03 | 0.00 | 2.49 | 95 | 1017.1 |
| 20260502033700 | 12 | 59 | 3.2 | 3.2 | 0.03 | 0.00 | 2.49 | 95 | 1017.1 |
| 20260502033200 | 12 | 79 | 3.2 | 3.2 | 0.03 | 0.00 | 2.49 | 95 | 1017.4 |
| 20260502032700 | 12 | 53 | 1.6 | 1.6 | 0.03 | 0.00 | 2.49 | 94 | 1017.6 |
| 20260502032203 | 12 | 146 | 1.6 | 3.2 | 0.03 | 0.00 | 2.49 | 94 | 1017.7 |
| 20260502031700 | 12 | 93 | 0.0 | 1.6 | 0.03 | 0.00 | 2.49 | 94 | 1017.7 |
| 20260502031200 | 12 | 73 | 3.2 | 3.2 | 0.03 | 0.00 | 2.49 | 94 | 1017.7 |
| 20260502030700 | 12 | 331 | 0.0 | 0.0 | 0.03 | 0.00 | 2.49 | 94 | 1017.5 |
| 20260502030200 | 11 | 331 | 1.6 | 3.2 | 0.03 | 0.00 | 2.49 | 94 | 1017.1 |
| 20260502025700 | 11 | 346 | 0.0 | 1.6 | 0.03 | 0.00 | 2.49 | 94 | 1017.2 |
| 20260502025200 | 11 | 308 | 1.6 | 1.6 | 0.00 | 0.00 | 2.49 | 94 | 1017.0 |
| 20260502024700 | 11 | 2 | 3.2 | 3.2 | 0.00 | 0.00 | 2.49 | 94 | 1016.7 |
| 20260502024200 | 11 | 133 | 1.6 | 3.2 | 0.03 | 0.00 | 2.49 | 94 | 1016.7 |
| 20260502023700 | 11 | 342 | 3.2 | 3.2 | 0.08 | 0.00 | 2.46 | 94 | 1016.9 |
| 20260502023200 | 11 | 328 | 3.2 | 3.2 | 0.08 | 0.00 | 2.46 | 94 | 1017.0 |
| 20260502022700 | 11 | 42 | 3.2 | 4.8 | 0.08 | 0.00 | 2.46 | 94 | 1017.0 |
| 20260502022200 | 11 | 332 | 0.0 | 0.0 | 0.10 | 0.00 | 2.46 | 94 | 1017.0 |
| 20260502021701 | 11 | 11 | 1.6 | 1.6 | 0.10 | 0.00 | 2.46 | 94 | 1016.9 |
| 20260502021200 | 11 | 33 | 1.6 | 1.6 | 0.10 | 0.00 | 2.46 | 94 | 1017.2 |
| 20260502020701 | 11 | 314 | 3.2 | 3.2 | 0.10 | 0.00 | 2.46 | 94 | 1017.0 |
| 20260502020201 | 11 | 30 | 0.0 | 0.0 | 0.10 | 0.00 | 2.44 | 94 | 1017.0 |
| 20260502015700 | 11 | 187 | 3.2 | 4.8 | 0.10 | 0.00 | 2.44 | 94 | 1016.8 |
| 20260502015200 | 11 | 0 | 0.0 | 0.0 | 0.10 | 0.00 | 2.44 | 94 | 1016.7 |
| 20260502014701 | 11 | 167 | 1.6 | 3.2 | 0.08 | 0.00 | 2.44 | 94 | 1016.5 |
| 20260502014200 | 11 | 214 | 1.6 | 3.2 | 0.03 | 0.00 | 2.44 | 94 | 1016.7 |
| 20260502013704 | 11 | 276 | 3.2 | 4.8 | 0.03 | 0.00 | 2.44 | 94 | 1016.7 |
| 20260502013200 | 11 | 296 | 1.6 | 3.2 | 0.03 | 0.00 | 2.39 | 93 | 1016.5 |
| 20260502012700 | 11 | 329 | 1.6 | 1.6 | 0.05 | 0.00 | 2.39 | 93 | 1016.2 |
| 20260502012200 | 11 | 325 | 0.0 | 1.6 | 0.05 | 0.00 | 2.39 | 93 | 1015.9 |
| 20260502011700 | 11 | 104 | 3.2 | 3.2 | 0.05 | 0.00 | 2.39 | 93 | 1015.7 |
| 20260502011200 | 11 | 98 | 4.8 | 4.8 | 0.05 | 0.00 | 2.39 | 93 | 1015.5 |
| 20260502010701 | 11 | 110 | 3.2 | 3.2 | 0.05 | 0.00 | 2.39 | 93 | 1015.7 |
| 20260502010201 | 11 | 117 | 3.2 | 3.2 | 0.08 | 0.00 | 2.39 | 93 | 1015.7 |
| 20260502005700 | 11 | 65 | 1.6 | 1.6 | 0.08 | 0.00 | 2.39 | 93 | 1015.8 |
| 20260502005200 | 11 | 134 | 0.0 | 1.6 | 0.08 | 0.00 | 2.39 | 92 | 1015.5 |
| 20260502004700 | 11 | 104 | 3.2 | 6.4 | 0.08 | 0.00 | 2.39 | 92 | 1015.5 |
| 20260502004200 | 11 | 94 | 8.0 | 9.7 | 0.08 | 0.00 | 2.39 | 92 | 1015.3 |
| 20260502003700 | 11 | 87 | 6.4 | 6.4 | 0.08 | 0.00 | 2.39 | 92 | 1015.2 |
| 20260502003202 | 11 | 96 | 4.8 | 6.4 | 0.13 | 0.00 | 2.39 | 91 | 1015.4 |
| 20260502002701 | 11 | 87 | 8.0 | 14.5 | 0.13 | 0.00 | 2.36 | 91 | 1015.2 |
| 20260502002200 | 11 | 62 | 11.3 | 12.9 | 0.13 | 0.00 | 2.39 | 91 | 1015.1 |
| 20260502001701 | 11 | 79 | 8.0 | 14.5 | 0.13 | 0.00 | 2.39 | 91 | 1014.9 |
| 20260502001200 | 11 | 90 | 11.3 | 17.7 | 0.13 | 0.00 | 2.39 | 92 | 1015.0 |
| 20260502000700 | 11 | 69 | 9.7 | 14.5 | 0.10 | 0.00 | 2.36 | 91 | 1015.0 |
| 20260502000200 | 11 | 73 | 9.7 | 12.9 | 0.10 | 0.00 | 2.36 | 92 | 1015.0 |
| 20260501235700 | 11 | 74 | 11.3 | 16.1 | 0.10 | 0.00 | 2.36 | 92 | 1015.1 |
| 20260501235200 | 11 | 81 | 8.0 | 11.3 | 0.13 | 0.00 | 2.34 | 93 | 1015.1 |
| 20260501234700 | 11 | 73 | 8.0 | 12.9 | 0.13 | 0.00 | 2.34 | 93 | 1014.8 |
| 20260501234159 | 11 | 81 | 9.7 | 12.9 | 0.13 | 0.00 | 2.34 | 93 | 1014.8 |
| 20260501233700 | 11 | 110 | 4.8 | 6.4 | 0.15 | 0.00 | 2.31 | 93 | 1015.0 |
| 20260501233200 | 11 | 90 | 8.0 | 9.7 | 0.15 | 0.00 | 2.31 | 93 | 1015.1 |
| 20260501232700 | 11 | 89 | 6.4 | 9.7 | 0.15 | 0.00 | 2.31 | 93 | 1015.0 |
| 20260501232203 | 11 | 92 | 6.4 | 6.4 | 0.18 | 0.00 | 2.31 | 93 | 1015.3 |
| 20260501231700 | 11 | 95 | 8.0 | 14.5 | 0.20 | 0.00 | 2.29 | 92 | 1015.6 |
| 20260501231200 | 11 | 70 | 9.7 | 12.9 | 0.20 | 0.00 | 2.29 | 92 | 1015.5 |
| 20260501230700 | 11 | 99 | 8.0 | 11.3 | 0.23 | 0.00 | 2.29 | 92 | 1015.3 |
| 20260501230200 | 11 | 85 | 8.0 | 12.9 | 0.23 | 0.00 | 2.29 | 93 | 1015.2 |
| 20260501225700 | 11 | 46 | 9.7 | 12.9 | 0.23 | 0.00 | 2.29 | 93 | 1014.8 |
| 20260501225200 | 11 | 81 | 8.0 | 9.7 | 0.20 | 0.00 | 2.26 | 93 | 1014.6 |
| 20260501224700 | 11 | 74 | 8.0 | 12.9 | 0.20 | 0.00 | 2.24 | 93 | 1014.7 |
| 20260501224201 | 11 | 54 | 11.3 | 17.7 | 0.20 | 0.00 | 2.21 | 93 | 1014.8 |
| 20260501223700 | 11 | 56 | 6.4 | 9.7 | 0.20 | 0.00 | 2.21 | 94 | 1015.0 |
| 20260501223201 | 11 | 82 | 6.4 | 9.7 | 0.18 | 0.00 | 2.18 | 93 | 1015.1 |
| 20260501222701 | 11 | 109 | 1.6 | 4.8 | 0.18 | 0.00 | 2.18 | 93 | 1015.2 |
| 20260501222200 | 12 | 40 | 4.8 | 6.4 | 0.18 | 0.00 | 2.16 | 93 | 1015.1 |
| 20260501221701 | 12 | 68 | 6.4 | 6.4 | 0.15 | 0.00 | 2.13 | 93 | 1014.7 |
| 20260501221200 | 12 | 76 | 4.8 | 8.0 | 0.15 | 0.00 | 2.11 | 93 | 1014.7 |
| 20260501220700 | 12 | 27 | 3.2 | 4.8 | 0.15 | 0.00 | 2.08 | 93 | 1015.0 |
| 20260501220201 | 12 | 106 | 4.8 | 8.0 | 0.15 | 0.00 | 2.06 | 93 | 1015.0 |
| 20260501215700 | 12 | 81 | 6.4 | 8.0 | 0.15 | 0.00 | 2.03 | 93 | 1014.7 |
| 20260501215200 | 12 | 110 | 3.2 | 4.8 | 0.13 | 0.00 | 2.03 | 93 | 1014.6 |
| 20260501214700 | 12 | 70 | 3.2 | 3.2 | 0.13 | 0.00 | 2.01 | 93 | 1014.6 |
| 20260501214201 | 12 | 136 | 3.2 | 6.4 | 0.13 | 0.00 | 2.01 | 92 | 1014.5 |
| 20260501213700 | 12 | 65 | 4.8 | 9.7 | 0.10 | 0.00 | 1.98 | 92 | 1014.5 |
| 20260501213200 | 12 | 54 | 3.2 | 4.8 | 0.08 | 0.00 | 1.98 | 92 | 1014.6 |
| 20260501212700 | 12 | 54 | 3.2 | 4.8 | 0.08 | 0.00 | 1.96 | 91 | 1014.6 |
| 20260501212200 | 12 | 45 | 3.2 | 4.8 | 0.03 | 0.00 | 1.96 | 91 | 1014.6 |
| 20260501211700 | 12 | 25 | 3.2 | 3.2 | 0.00 | 0.00 | 1.96 | 91 | 1014.5 |
| 20260501211200 | 12 | 281 | 1.6 | 3.2 | 0.00 | 0.00 | 1.91 | 91 | 1014.5 |
| 20260501210701 | 12 | 62 | 1.6 | 3.2 | 0.00 | 0.00 | 1.91 | 90 | 1014.4 |
| 20260501210200 | 12 | 119 | 4.8 | 4.8 | 0.00 | 0.00 | 1.88 | 90 | 1014.2 |
| 20260501205700 | 12 | 78 | 8.0 | 14.5 | 0.00 | 0.00 | 1.85 | 90 | 1014.1 |
| 20260501205201 | 12 | 83 | 9.7 | 17.7 | 0.00 | 0.00 | 1.85 | 89 | 1014.0 |
| 20260501204700 | 12 | 0 | 8.0 | 8.0 | 0.00 | 0.00 | 1.85 | 89 | 1014.0 |
| 20260501204200 | 12 | 64 | 3.2 | 6.4 | 0.00 | 0.00 | 1.85 | 89 | 1013.8 |
| 20260501203701 | 12 | 112 | 4.8 | 8.0 | 0.00 | 0.00 | 1.85 | 89 | 1013.5 |
| 20260501203201 | 12 | 72 | 9.7 | 14.5 | 0.00 | 0.00 | 1.85 | 89 | 1013.6 |
| 20260501202700 | 12 | 42 | 6.4 | 11.3 | 0.00 | 0.00 | 1.85 | 89 | 1013.4 |
| 20260501202200 | 12 | 84 | 3.2 | 4.8 | 0.03 | 0.00 | 1.85 | 89 | 1013.3 |
| 20260501201702 | 12 | 100 | 4.8 | 12.9 | 0.03 | 0.00 | 1.85 | 89 | 1012.9 |
| 20260501201200 | 12 | 95 | 11.3 | 14.5 | 0.03 | 0.00 | 1.85 | 89 | 1012.7 |
| 20260501200700 | 12 | 74 | 14.5 | 17.7 | 0.03 | 0.00 | 1.85 | 88 | 1012.7 |
| 20260501200200 | 12 | 86 | 14.5 | 19.3 | 0.03 | 0.00 | 1.91 | 88 | 1012.6 |
| 20260501195701 | 12 | 93 | 14.5 | 25.7 | 0.03 | 0.00 | 1.91 | 89 | 1012.5 |
| 20260501195208 | 12 | 68 | 9.7 | 12.9 | 0.03 | 0.00 | 1.91 | 91 | 1012.2 |
| 20260501194700 | 12 | 94 | 11.3 | 16.1 | 0.03 | 0.00 | 1.91 | 91 | 1012.0 |
| 20260501194202 | 12 | 85 | 11.3 | 16.1 | 0.05 | 0.00 | 1.91 | 92 | 1012.1 |
| 20260501193700 | 12 | 71 | 8.0 | 12.9 | 0.05 | 0.00 | 1.91 | 92 | 1012.5 |
| 20260501193201 | 12 | 81 | 9.7 | 24.1 | 0.05 | 0.00 | 1.91 | 93 | 1012.5 |
| 20260501192701 | 12 | 76 | 12.9 | 17.7 | 0.10 | 0.00 | 1.91 | 93 | 1012.8 |
| 20260501192201 | 12 | 101 | 9.7 | 14.5 | 0.10 | 0.00 | 1.91 | 94 | 1013.0 |
| 20260501191700 | 12 | 60 | 9.7 | 17.7 | 0.13 | 0.00 | 1.91 | 94 | 1013.3 |
| 20260501191200 | 11 | 78 | 11.3 | 14.5 | 0.15 | 0.00 | 1.91 | 94 | 1013.5 |
| 20260501190700 | 11 | 87 | 14.5 | 22.5 | 0.15 | 0.00 | 1.91 | 94 | 1013.7 |
| 20260501190200 | 11 | 71 | 12.9 | 17.7 | 0.15 | 0.00 | 1.93 | 94 | 1014.2 |
| 20260501185701 | 11 | 73 | 14.5 | 20.9 | 0.15 | 0.00 | 1.93 | 94 | 1014.3 |
| 20260501185200 | 11 | 84 | 9.7 | 14.5 | 0.13 | 0.00 | 1.93 | 94 | 1014.2 |
| 20260501184700 | 11 | 78 | 9.7 | 19.3 | 0.13 | 0.00 | 1.91 | 94 | 1014.3 |
| 20260501184202 | 11 | 87 | 9.7 | 16.1 | 0.13 | 0.00 | 1.91 | 94 | 1014.6 |
| 20260501183701 | 11 | 82 | 9.7 | 12.9 | 0.13 | 0.00 | 1.91 | 94 | 1015.0 |
| 20260501183200 | 11 | 88 | 6.4 | 9.7 | 0.13 | 0.00 | 1.88 | 94 | 1015.1 |
| 20260501182701 | 11 | 66 | 8.0 | 12.9 | 0.15 | 0.00 | 1.85 | 94 | 1015.2 |
| 20260501182201 | 11 | 90 | 14.5 | 19.3 | 0.15 | 0.00 | 1.85 | 94 | 1015.1 |
| 20260501181700 | 11 | 70 | 9.7 | 16.1 | 0.15 | 0.00 | 1.83 | 94 | 1015.1 |
| 20260501181201 | 11 | 76 | 11.3 | 19.3 | 0.15 | 0.00 | 1.83 | 94 | 1015.3 |
| 20260501180701 | 11 | 52 | 6.4 | 14.5 | 0.20 | 0.00 | 1.80 | 94 | 1015.5 |